User: anonymous   Login
Location: Unspecified
(0.0000°N, 0.0000°E)
Time: 18:06:43
(UTC+00:00)
Language:

Envisat - Orbit

View from above orbital plane
View from above orbital plane
View from above satellite
View from above satellite

Ground track
Ground track

The orbit data is extracted from the following two-line orbital elements,

1 27386U 02009A   18288.55938091 -.00000014  00000-0  88399-5 0  9992
2 27386  98.1745 316.8838 0001162  94.7733  20.7909 14.37931782870829
Epoch (UTC): 15 October 2018 13:25:30
Eccentricity: 0.0001162
inclination: 98.1745°
perigee height: 764 km
apogee height: 766 km
right ascension of ascending node: 316.8838°
argument of perigee: 94.7733°
revolutions per day: 14.37931782
mean anomaly at epoch: 20.7909°
orbit number at epoch: 87082

The dashed part of the orbit path shows where the satellite is in the earth's shadow,  

DLR